Time,TemperatureF,DewpointF,PressureIn,WindDirection,WindDirectionDegrees,WindSpeedMPH,WindSpeedGustMPH,Humidity,HourlyPrecipIn,Conditions,Clouds,dailyrainin,SolarRadiationWatts/m^2,SoftwareType,DateUTC
2013-07-14 00:02:00,60.0,34.0,-100.00,NE,37,0.0,3.0,37,0.00,,,0.00,0.000000,,2013-07-14 07:02:00,
2013-07-14 00:11:00,60.0,34.0,-100.00,NE,37,0.0,3.0,37,0.00,,,0.00,0.000000,,2013-07-14 07:11:00,
2013-07-14 00:22:00,60.0,34.0,-100.00,NE,37,0.0,3.0,37,0.00,,,0.00,0.000000,,2013-07-14 07:22:00,
2013-07-14 00:32:00,60.0,34.0,-100.00,NE,37,0.0,3.0,37,0.00,,,0.00,0.000000,,2013-07-14 07:32:00,
2013-07-14 01:01:00,53.0,31.0,-100.00,North,354,0.0,0.0,43,0.00,,,0.00,0.000000,,2013-07-14 08:01:00,
2013-07-14 01:11:00,53.0,31.0,-100.00,North,354,0.0,0.0,43,0.00,,,0.00,0.000000,,2013-07-14 08:11:00,
2013-07-14 01:22:00,53.0,31.0,-100.00,North,354,0.0,0.0,43,0.00,,,0.00,0.000000,,2013-07-14 08:22:00,
2013-07-14 01:32:00,53.0,31.0,-100.00,North,354,0.0,0.0,43,0.00,,,0.00,0.000000,,2013-07-14 08:32:00,
2013-07-14 02:01:00,53.0,32.0,-100.00,NNE,18,0.0,0.0,45,0.00,,,0.00,0.000000,,2013-07-14 09:01:00,
2013-07-14 02:11:00,53.0,32.0,-100.00,NNE,18,0.0,0.0,45,0.00,,,0.00,0.000000,,2013-07-14 09:11:00,
2013-07-14 02:22:00,53.0,32.0,-100.00,NNE,18,0.0,0.0,45,0.00,,,0.00,0.000000,,2013-07-14 09:22:00,
2013-07-14 02:32:00,53.0,32.0,-100.00,NNE,18,0.0,0.0,45,0.00,,,0.00,0.000000,,2013-07-14 09:32:00,
2013-07-14 03:01:00,51.0,30.0,-100.00,North,359,0.0,0.0,44,0.00,,,0.00,0.000000,,2013-07-14 10:01:00,
2013-07-14 03:11:00,51.0,30.0,-100.00,North,359,0.0,0.0,44,0.00,,,0.00,0.000000,,2013-07-14 10:11:00,
2013-07-14 03:21:00,51.0,30.0,-100.00,North,359,0.0,0.0,44,0.00,,,0.00,0.000000,,2013-07-14 10:21:00,
2013-07-14 03:32:00,51.0,30.0,-100.00,North,359,0.0,0.0,44,0.00,,,0.00,0.000000,,2013-07-14 10:32:00,
2013-07-14 04:01:00,53.0,31.0,-100.00,North,356,0.0,0.0,42,-99.99,,,0.00,0.000000,,2013-07-14 11:01:00,
2013-07-14 04:11:00,53.0,31.0,-100.00,North,356,0.0,0.0,42,-99.99,,,0.00,0.000000,,2013-07-14 11:11:00,
2013-07-14 04:21:00,53.0,31.0,-100.00,North,356,0.0,0.0,42,-99.99,,,0.00,0.000000,,2013-07-14 11:21:00,
2013-07-14 04:32:00,53.0,31.0,-100.00,North,356,0.0,0.0,42,-99.99,,,0.00,0.000000,,2013-07-14 11:32:00,
2013-07-14 05:02:00,53.0,30.0,-100.00,North,351,0.0,0.0,41,0.00,,,0.00,0.000000,,2013-07-14 12:02:00,
2013-07-14 05:11:00,53.0,30.0,-100.00,North,351,0.0,0.0,41,0.00,,,0.00,0.000000,,2013-07-14 12:11:00,
2013-07-14 05:22:00,53.0,30.0,-100.00,North,351,0.0,0.0,41,0.00,,,0.00,0.000000,,2013-07-14 12:22:00,
2013-07-14 05:32:00,53.0,30.0,-100.00,North,351,0.0,0.0,41,0.00,,,0.00,0.000000,,2013-07-14 12:32:00,
2013-07-14 06:01:00,56.0,32.0,-100.00,NNW,341,0.0,0.0,40,0.00,,,0.00,0.000000,,2013-07-14 13:01:00,
2013-07-14 06:11:00,56.0,32.0,-100.00,NNW,341,0.0,0.0,40,0.00,,,0.00,0.000000,,2013-07-14 13:11:00,
2013-07-14 06:22:00,56.0,32.0,-100.00,NNW,341,0.0,0.0,40,0.00,,,0.00,0.000000,,2013-07-14 13:22:00,
2013-07-14 06:32:00,56.0,32.0,-100.00,NNW,341,0.0,0.0,40,0.00,,,0.00,0.000000,,2013-07-14 13:32:00,
2013-07-14 07:01:00,57.0,32.0,-100.00,NNW,346,0.0,0.0,39,0.00,,,0.00,15.000000,,2013-07-14 14:01:00,
2013-07-14 07:11:00,57.0,32.0,-100.00,NNW,346,0.0,0.0,39,0.00,,,0.00,15.000000,,2013-07-14 14:11:00,
2013-07-14 07:23:00,57.0,32.0,-100.00,NNW,346,0.0,0.0,39,0.00,,,0.00,15.000000,,2013-07-14 14:23:00,
2013-07-14 07:33:00,57.0,32.0,-100.00,NNW,346,0.0,0.0,39,0.00,,,0.00,15.000000,,2013-07-14 14:33:00,
2013-07-14 08:01:00,65.0,34.0,-100.00,NW,311,0.0,0.0,32,0.00,,,0.00,78.000000,,2013-07-14 15:01:00,
2013-07-14 08:12:00,65.0,34.0,-100.00,NW,311,0.0,0.0,32,0.00,,,0.00,78.000000,,2013-07-14 15:12:00,
2013-07-14 08:22:00,65.0,34.0,-100.00,NW,311,0.0,0.0,32,0.00,,,0.00,78.000000,,2013-07-14 15:22:00,
2013-07-14 08:32:00,65.0,34.0,-100.00,NW,311,0.0,0.0,32,0.00,,,0.00,78.000000,,2013-07-14 15:32:00,
2013-07-14 09:01:00,73.0,35.0,-100.00,SSW,194,0.0,0.0,25,0.00,,,0.00,190.000000,,2013-07-14 16:01:00,
2013-07-14 09:11:00,73.0,35.0,-100.00,SSW,194,0.0,0.0,25,0.00,,,0.00,190.000000,,2013-07-14 16:11:00,
2013-07-14 09:22:00,73.0,35.0,-100.00,SSW,194,0.0,0.0,25,0.00,,,0.00,190.000000,,2013-07-14 16:22:00,
2013-07-14 09:32:00,73.0,35.0,-100.00,SSW,194,0.0,0.0,25,0.00,,,0.00,190.000000,,2013-07-14 16:32:00,
2013-07-14 10:02:00,81.0,44.0,-100.00,NE,39,1.0,5.0,27,0.00,,,0.00,563.000000,,2013-07-14 17:02:00,
2013-07-14 10:32:00,81.0,44.0,-100.00,NE,39,1.0,5.0,27,0.00,,,0.00,563.000000,,2013-07-14 17:32:00,
2013-07-14 11:21:00,83.0,34.0,-100.00,SE,127,1.0,9.0,17,0.00,,,0.00,846.000000,,2013-07-14 18:21:00,
2013-07-14 13:01:00,81.0,40.0,-100.00,WSW,248,2.0,7.0,23,0.00,,,0.00,647.000000,,2013-07-14 20:01:00,
2013-07-14 13:11:00,81.0,40.0,-100.00,WSW,248,2.0,7.0,23,0.00,,,0.00,647.000000,,2013-07-14 20:11:00,
2013-07-14 13:22:00,81.0,40.0,-100.00,WSW,248,2.0,7.0,23,0.00,,,0.00,647.000000,,2013-07-14 20:22:00,
2013-07-14 13:32:00,81.0,40.0,-100.00,WSW,248,2.0,7.0,23,0.00,,,0.00,647.000000,,2013-07-14 20:32:00,
2013-07-14 14:01:00,77.0,41.0,-100.00,NW,325,0.0,11.0,28,0.00,,,0.00,378.000000,,2013-07-14 21:01:00,
2013-07-14 14:11:00,77.0,41.0,-100.00,NW,325,0.0,11.0,28,0.00,,,0.00,378.000000,,2013-07-14 21:11:00,
2013-07-14 14:22:00,77.0,41.0,-100.00,NW,325,0.0,11.0,28,0.00,,,0.00,378.000000,,2013-07-14 21:22:00,
2013-07-14 14:32:00,77.0,41.0,-100.00,NW,325,0.0,11.0,28,0.00,,,0.00,378.000000,,2013-07-14 21:32:00,
2013-07-14 15:01:00,80.0,43.0,-100.00,WNW,302,0.0,6.0,27,0.00,,,0.00,327.000000,,2013-07-14 22:01:00,
2013-07-14 15:11:00,80.0,43.0,-100.00,WNW,302,0.0,6.0,27,0.00,,,0.00,327.000000,,2013-07-14 22:11:00,
2013-07-14 15:22:00,80.0,43.0,-100.00,WNW,302,0.0,6.0,27,0.00,,,0.00,327.000000,,2013-07-14 22:22:00,
2013-07-14 15:32:00,80.0,43.0,-100.00,WNW,302,0.0,6.0,27,0.00,,,0.00,327.000000,,2013-07-14 22:32:00,
2013-07-14 16:01:00,80.0,45.0,-100.00,West,278,1.0,6.0,29,0.00,,,0.00,329.000000,,2013-07-14 23:01:00,
2013-07-14 16:11:00,80.0,45.0,-100.00,West,278,1.0,6.0,29,0.00,,,0.00,329.000000,,2013-07-14 23:11:00,
2013-07-14 16:22:00,80.0,45.0,-100.00,West,278,1.0,6.0,29,0.00,,,0.00,329.000000,,2013-07-14 23:22:00,
2013-07-14 16:32:00,80.0,45.0,-100.00,West,278,1.0,6.0,29,0.00,,,0.00,329.000000,,2013-07-14 23:32:00,
2013-07-14 17:02:00,79.0,41.0,-100.00,NNW,339,3.0,6.0,26,0.00,,,0.00,207.000000,,2013-07-15 00:02:00,
2013-07-14 17:11:00,79.0,41.0,-100.00,NNW,339,3.0,6.0,26,0.00,,,0.00,207.000000,,2013-07-15 00:11:00,
2013-07-14 17:22:00,79.0,41.0,-100.00,NNW,339,3.0,6.0,26,0.00,,,0.00,207.000000,,2013-07-15 00:22:00,
2013-07-14 17:32:00,79.0,41.0,-100.00,NNW,339,3.0,6.0,26,0.00,,,0.00,207.000000,,2013-07-15 00:32:00,
2013-07-14 18:01:00,77.0,41.0,-100.00,SSW,194,2.0,10.0,28,0.00,,,0.00,393.000000,,2013-07-15 01:01:00,
2013-07-14 18:11:00,77.0,41.0,-100.00,SSW,194,2.0,10.0,28,0.00,,,0.00,393.000000,,2013-07-15 01:11:00,
2013-07-14 18:22:00,77.0,41.0,-100.00,SSW,194,2.0,10.0,28,0.00,,,0.00,393.000000,,2013-07-15 01:22:00,
2013-07-14 18:32:00,77.0,41.0,-100.00,SSW,194,2.0,10.0,28,0.00,,,0.00,393.000000,,2013-07-15 01:32:00,
2013-07-14 19:02:00,75.0,42.0,-100.00,SSW,199,2.0,8.0,31,0.00,,,0.00,160.000000,,2013-07-15 02:02:00,
2013-07-14 19:11:00,75.0,42.0,-100.00,SSW,199,2.0,8.0,31,0.00,,,0.00,160.000000,,2013-07-15 02:11:00,
2013-07-14 19:22:00,75.0,42.0,-100.00,SSW,199,2.0,8.0,31,0.00,,,0.00,160.000000,,2013-07-15 02:22:00,
2013-07-14 19:32:00,75.0,42.0,-100.00,SSW,199,2.0,8.0,31,0.00,,,0.00,160.000000,,2013-07-15 02:32:00,
2013-07-14 20:02:00,70.0,41.0,-100.00,SW,222,0.0,6.0,35,0.00,,,0.00,56.000000,,2013-07-15 03:02:00,
2013-07-14 20:11:00,70.0,41.0,-100.00,SW,222,0.0,6.0,35,0.00,,,0.00,56.000000,,2013-07-15 03:11:00,
2013-07-14 20:21:00,70.0,41.0,-100.00,SW,222,0.0,6.0,35,0.00,,,0.00,56.000000,,2013-07-15 03:21:00,
2013-07-14 20:32:00,70.0,41.0,-100.00,SW,222,0.0,6.0,35,0.00,,,0.00,56.000000,,2013-07-15 03:32:00,
2013-07-14 21:01:00,64.0,42.0,-100.00,NNW,341,0.0,3.0,45,0.00,,,0.00,5.000000,,2013-07-15 04:01:00,
2013-07-14 21:11:00,64.0,42.0,-100.00,NNW,341,0.0,3.0,45,0.00,,,0.00,5.000000,,2013-07-15 04:11:00,
2013-07-14 21:22:00,64.0,42.0,-100.00,NNW,341,0.0,3.0,45,0.00,,,0.00,5.000000,,2013-07-15 04:22:00,
2013-07-14 21:32:00,64.0,42.0,-100.00,NNW,341,0.0,3.0,45,0.00,,,0.00,5.000000,,2013-07-15 04:32:00,
2013-07-14 22:02:00,63.0,37.0,-100.00,West,280,0.0,3.0,38,0.00,,,0.00,0.000000,,2013-07-15 05:02:00,
2013-07-14 22:11:00,63.0,37.0,-100.00,West,280,0.0,3.0,38,0.00,,,0.00,0.000000,,2013-07-15 05:11:00,
2013-07-14 22:21:00,63.0,37.0,-100.00,West,280,0.0,3.0,38,0.00,,,0.00,0.000000,,2013-07-15 05:21:00,
2013-07-14 22:32:00,63.0,37.0,-100.00,West,280,0.0,3.0,38,0.00,,,0.00,0.000000,,2013-07-15 05:32:00,
2013-07-14 23:02:00,58.0,36.0,-100.00,North,349,0.0,0.0,43,0.00,,,0.00,0.000000,,2013-07-15 06:02:00,
2013-07-14 23:11:00,58.0,36.0,-100.00,North,349,0.0,0.0,43,0.00,,,0.00,0.000000,,2013-07-15 06:11:00,
2013-07-14 23:22:00,58.0,36.0,-100.00,North,349,0.0,0.0,43,0.00,,,0.00,0.000000,,2013-07-15 06:22:00,
2013-07-14 23:32:00,58.0,36.0,-100.00,North,349,0.0,0.0,43,0.00,,,0.00,0.000000,,2013-07-15 06:32:00,